FLOCK 4Y-14 (55024 NORAD) Tracking and Keplerian Element Data

This shows tracking and keplerian element data for the satellite.

Feedback or suggestion? Click here.




ElementValue
Catalog55024
NameFLOCK 4Y-14
Epoch Orbit1245
Epoch Day84.91236779
Epoch Year2023
RAAN145.7411
Inclination97.4886
Eccentricity0.0009819
Argument of Perigee303.8406
Mean Anonmoly56.1891
Mean Motion15.15771982
Decay Rate0.00035767
L11 55024U 23001R 23084.91236779 .00035767 00000+0 18680-2 0 9995
L22 55024 97.4886 145.7411 0009819 303.8406 56.1891 15.15771982 12452



Live tracking and technical data element details for FLOCK 4Y-14 (NORAD 55024). FLOCK 4Y-14 can be tracked NOW for your location showing map with azimuth and elevation plus other details from your city location.







IsCatalogInMostPopularTable: catalog: 55024, numindb: 8
Update: records affected: 1



GetName: 55024 FLOCK 4Y-14

Hit Count: updated at: Mon, 27 Mar 2023 07:12:23 GMT